Vorticity
9 10 2 14 6 14 1 5 11 7 4 16 -5 1 2 1 16 17 9 7 7 8 7 4 4 4 3 3 4 5 8 3 7 6 5 5 4 4 4 5 6 6 5 4 4 3 3 3 4
9 5 13 7 18 4 3 12 9 5 5 4 -4 -3 6 9 7 12 6 6 5 5 6 5 4 4 3 4 6 8 6 7 5 6 6 6 5 4 4 6 6 6 5 4 5 6 6 6 6
7 7 5 5 14 -11 6 5 -2 12 4 6 -5 0 -0 12 3 4 8 5 8 6 6 7 6 6 6 8 8 6 5 7 6 6 6 6 5 4 5 6 4 2 3 6 6 4 2 2 3
13 11 2 17 14 11 2 5 2 16 5 -5 -2 -1 6 5 2 6 7 6 7 7 7 6 7 7 7 8 1 7 2 8 9 8 7 5 4 4 4 3 3 6 5 2 1 2 1 2 5
9 5 17 5 4 10 7 12 13 8 -8 -2 1 10 13 8 4 7 5 9 7 7 7 7 8 9 8 1 1 10 9 5 6 4 7 8 2 4 4 5 5 3 4 4 4 5 4 10 7
14 11 22 8 13 13 10 10 11 -3 10 2 7 -4 10 14 2 6 6 10 6 6 6 9 8 6 2 7 3 3 4 3 3 8 8 5 12 9 6 3 3 6 1 -1 1 3 8 9 5
21 10 6 1 4 12 7 12 7 -2 8 4 -5 2 17 7 7 1 7 7 5 8 7 8 10 4 -2 7 13 5 6 -3 11 3 10 15 4 4 -0 1 -1 5 5 2 9 9 7 8 7
-4 8 4 6 5 4 -3 10 8 3 8 -9 5 2 7 10 5 3 7 5 7 10 8 9 1 -2 9 4 6 7 -2 2 9 -0 14 34 11 5 3 5 0 3 7 7 7 7 8 8 8
2 -3 1 3 4 14 11 10 -1 3 6 14 5 1 11 10 0 7 6 9 10 8 10 -1 6 11 4 2 5 8 8 18 18 5 16 22 11 6 8 -2 5 7 5 7 7 8 9 10 10
4 4 6 13 -1 4 8 7 12 2 17 8 9 14 15 15 5 7 6 10 10 8 1 1 7 1 4 4 -0 12 9 14 5 5 5 9 5 5 2 6 6 6 7 7 8 8 6 6 7
5 4 -1 5 17 8 8 -1 10 13 3 8 4 5 17 11 9 7 5 10 7 4 -2 8 15 2 2 1 4 9 13 10 4 4 4 4 4 7 7 4 5 8 9 9 7 5 6 6 7
5 2 3 1 7 11 8 4 3 4 5 12 1 8 10 10 9 8 5 10 5 -0 6 14 5 3 4 7 10 10 14 7 6 1 8 11 8 4 5 8 9 10 6 6 6 6 7 10 11
5 6 -0 9 11 6 6 8 2 9 15 3 9 4 12 10 9 7 6 9 1 2 9 9 7 3 10 13 12 9 21 14 12 5 8 5 4 6 7 7 8 7 8 10 12 14 13 10 9
1 4 5 6 8 13 5 3 6 10 9 7 10 4 12 8 8 7 10 5 -1 10 7 3 7 6 11 17 9 9 3 7 3 7 4 5 5 5 7 7 8 9 9 9 9 9 8 7 7
8 -1 5 16 21 8 12 2 -3 2 4 9 8 2 10 11 7 5 5 2 -1 5 8 7 5 6 11 14 8 11 4 6 5 5 4 4 5 7 7 10 9 10 11 10 9 8 8 9 9
6 7 11 19 -8 22 11 -0 6 3 -2 6 8 3 6 15 9 5 2 2 -1 -1 11 7 3 7 12 9 10 7 7 5 5 4 5 6 7 8 10 10 12 11 10 10 10 9 9 8 7
11 0 9 6 2 17 11 -2 15 7 2 6 3 5 6 7 11 14 3 3 0 -1 2 8 5 7 10 8 5 5 3 4 6 7 7 8 9 9 11 12 10 9 9 9 8 7 8 7 7
11 14 9 -1 -3 -7 9 5 3 19 10 5 4 3 5 9 16 7 11 3 2 0 -4 8 5 7 6 11 6 4 7 10 7 8 8 9 12 12 11 11 10 8 8 7 8 8 7 7 7
8 3 4 9 1 9 6 8 17 14 12 5 -3 9 6 8 6 8 9 8 3 1 3 6 5 6 8 7 8 7 9 8 8 10 10 12 12 12 11 9 8 8 7 7 6 8 8 8 7
4 4 9 6 24 -4 0 5 13 21 10 6 1 4 8 7 5 10 5 10 8 5 -2 3 6 5 7 9 10 9 9 10 7 5 5 4 3 5 9 10 8 8 8 7 7 8 8 7 7
4 2 8 5 7 18 3 8 6 11 16 7 1 5 7 4 5 10 10 6 8 8 4 5 5 3 7 11 9 9 9 5 3 4 5 6 6 6 2 4 8 9 9 8 8 8 8 8 7
-3 -2 10 -7 -7 14 11 -1 -1 13 9 10 11 4 8 5 5 4 6 13 7 10 7 6 4 4 8 8 8 7 4 7 6 6 6 5 3 5 5 4 7 9 8 8 9 8 8 8 7
12 16 10 19 13 20 3 18 25 36 21 11 4 13 8 16 12 6 7 8 9 7 7 8 5 2 8 8 6 4 8 6 6 4 2 2 4 9 6 8 6 9 9 8 8 9 9 9 9
3 16 -4 2 6 47 4 -3 27 5 8 14 18 20 17 14 8 17 9 9 9 7 6 8 4 3 5 8 6 4 5 3 2 1 2 3 10 11 6 3 3 6 8 8 8 9 9 8 8
-0 -15 35 33 29 -10 14 40 -5 5 12 20 16 19 13 2 10 15 17 7 19 8 8 9 4 5 4 11 7 4 3 1 1 1 2 5 -1 3 9 3 3 4 7 6 7 8 9 9 9
17 34 -34 9 7 -23 10 12 -1 11 17 21 12 16 6 11 19 17 28 7 21 9 8 8 7 6 2 9 10 4 4 3 2 2 1 3 2 5 5 5 7 4 5 6 6 7 9 10 9
17 22 17 23 22 43 13 20 13 -7 -15 -1 -6 5 -24 1 25 22 14 17 20 10 8 10 9 6 3 5 6 7 5 4 3 2 3 4 2 1 0 2 4 3 4 5 5 6 9 10 10
6 4 10 -3 11 4 24 19 -26 3 18 6 -13 -1 18 16 35 9 7 14 16 9 4 17 7 5 2 3 4 4 4 4 4 4 4 5 3 2 3 -4 7 12 4 5 5 5 7 11 10
13 5 2 7 19 -8 23 18 14 25 43 21 28 16 28 9 35 9 15 17 14 10 13 12 7 6 4 2 3 6 7 6 5 6 7 8 7 7 13 6 -5 6 4 4 4 6 8 10 10
14 9 4 -9 6 -7 -17 -3 -3 5 -2 18 9 -0 27 9 3 14 17 13 13 11 11 12 12 15 19 15 10 16 20 18 17 12 13 3 17 13 -1 10 18 4 18 3 4 7 8 8 10
Height
3181 3181 3181 3181 3185 3181 3182 3185 3185 3187 3188 3189 3189 3189 3188 3186 3187 3190 3188 3188 3189 3190 3192 3194 3195 3197 3198 3200 3201 3202 3201 3201 3201 3200 3200 3200 3199 3199 3198 3197 3196 3195 3194 3193 3192 3192 3192 3192 3191
3181 3181 3181 3181 3183 3183 3185 3186 3187 3188 3188 3189 3189 3189 3189 3188 3187 3188 3188 3188 3189 3190 3191 3194 3196 3198 3199 3200 3201 3200 3201 3200 3200 3200 3200 3199 3199 3199 3198 3197 3196 3195 3194 3194 3193 3193 3193 3193 3191
3181 3181 3182 3181 3182 3183 3184 3186 3188 3189 3189 3189 3189 3189 3189 3188 3188 3189 3189 3190 3190 3191 3193 3195 3197 3198 3199 3200 3200 3200 3199 3200 3199 3199 3198 3199 3199 3198 3198 3197 3196 3195 3195 3194 3193 3193 3193 3192 3191
3181 3182 3183 3182 3183 3184 3186 3187 3189 3189 3190 3190 3191 3191 3190 3189 3188 3190 3190 3191 3192 3193 3194 3195 3196 3198 3199 3200 3199 3200 3198 3199 3199 3199 3198 3198 3198 3198 3198 3197 3197 3195 3194 3194 3193 3193 3192 3191 3189
3181 3182 3182 3182 3183 3185 3187 3189 3191 3192 3192 3193 3192 3191 3191 3189 3189 3190 3191 3191 3192 3193 3194 3195 3197 3199 3199 3199 3199 3200 3199 3198 3198 3197 3197 3197 3198 3198 3197 3197 3196 3195 3194 3194 3193 3192 3191 3189 3188
3182 3182 3184 3184 3185 3187 3188 3190 3192 3192 3192 3192 3192 3192 3191 3189 3189 3190 3190 3191 3192 3193 3195 3197 3198 3199 3200 3199 3198 3199 3198 3197 3197 3196 3195 3196 3195 3198 3197 3196 3194 3194 3194 3193 3192 3190 3189 3188 3186
3183 3183 3185 3186 3187 3188 3189 3191 3192 3194 3193 3194 3193 3192 3191 3189 3187 3188 3189 3190 3192 3193 3194 3196 3197 3198 3198 3198 3197 3197 3196 3196 3195 3195 3194 3193 3194 3195 3196 3194 3193 3193 3192 3190 3190 3188 3186 3185 3185
3185 3185 3186 3187 3188 3189 3189 3190 3191 3193 3195 3194 3192 3191 3190 3188 3187 3187 3189 3190 3192 3193 3195 3196 3197 3197 3197 3196 3196 3196 3196 3195 3195 3194 3192 3190 3192 3194 3194 3193 3192 3191 3190 3188 3187 3186 3183 3183 3182
3187 3187 3187 3187 3188 3188 3189 3190 3191 3192 3192 3192 3191 3190 3188 3187 3186 3188 3189 3190 3192 3193 3195 3196 3196 3196 3196 3196 3195 3194 3194 3194 3193 3193 3190 3189 3191 3192 3192 3191 3190 3189 3187 3185 3184 3182 3181 3180 3179
3187 3187 3187 3187 3187 3187 3188 3188 3189 3190 3189 3190 3191 3190 3188 3187 3187 3188 3189 3190 3192 3194 3195 3196 3195 3196 3196 3196 3194 3193 3192 3192 3192 3192 3191 3191 3191 3191 3191 3190 3189 3187 3184 3182 3180 3178 3177 3176 3176
3187 3187 3186 3186 3186 3187 3187 3188 3188 3187 3188 3189 3190 3189 3188 3187 3187 3187 3188 3189 3191 3193 3195 3194 3194 3195 3195 3194 3192 3192 3191 3192 3191 3191 3192 3191 3191 3190 3189 3188 3187 3184 3181 3180 3178 3175 3174 3173 3172
3186 3186 3185 3184 3185 3185 3186 3187 3186 3186 3187 3187 3187 3186 3186 3187 3186 3186 3187 3188 3190 3193 3193 3193 3193 3193 3193 3192 3190 3190 3189 3190 3190 3190 3190 3190 3190 3190 3189 3187 3185 3183 3181 3178 3176 3174 3171 3170 3169
3184 3184 3184 3182 3182 3183 3185 3185 3185 3184 3185 3185 3185 3184 3184 3183 3184 3185 3185 3187 3189 3191 3191 3192 3192 3192 3191 3190 3189 3188 3187 3188 3191 3191 3190 3189 3188 3188 3186 3184 3183 3181 3178 3176 3174 3173 3171 3169 3168
3182 3182 3182 3180 3180 3181 3183 3183 3183 3182 3182 3183 3183 3182 3182 3182 3183 3184 3185 3187 3188 3190 3190 3191 3191 3190 3189 3188 3188 3188 3186 3186 3189 3190 3190 3189 3187 3186 3184 3182 3180 3178 3175 3173 3171 3170 3170 3169 3167
3179 3179 3178 3178 3177 3177 3180 3180 3179 3181 3180 3180 3181 3180 3180 3181 3182 3184 3185 3187 3188 3189 3190 3189 3189 3189 3187 3187 3188 3187 3186 3185 3186 3188 3188 3188 3187 3185 3183 3181 3178 3177 3175 3174 3172 3170 3169 3168 3166
3177 3177 3176 3175 3175 3175 3177 3176 3177 3177 3177 3178 3178 3178 3179 3181 3182 3182 3183 3184 3186 3188 3188 3188 3187 3187 3186 3185 3186 3187 3186 3185 3184 3185 3186 3186 3185 3183 3181 3179 3177 3175 3174 3173 3171 3169 3168 3166 3165
3174 3173 3173 3174 3173 3173 3174 3174 3175 3174 3173 3174 3175 3175 3176 3177 3179 3180 3181 3182 3184 3186 3187 3187 3186 3185 3185 3184 3184 3186 3186 3185 3184 3184 3184 3184 3183 3181 3179 3178 3176 3173 3172 3171 3169 3167 3166 3164 3163
3172 3171 3171 3170 3171 3170 3169 3168 3170 3169 3170 3171 3172 3172 3173 3174 3177 3177 3178 3179 3181 3183 3184 3185 3185 3184 3183 3183 3182 3184 3185 3184 3183 3183 3182 3181 3181 3180 3177 3175 3174 3171 3169 3168 3167 3166 3164 3162 3160
3170 3169 3168 3168 3169 3165 3163 3162 3163 3163 3164 3166 3167 3168 3170 3170 3172 3173 3174 3175 3177 3181 3182 3182 3182 3181 3181 3181 3181 3181 3182 3183 3182 3181 3180 3180 3180 3179 3177 3174 3171 3169 3166 3165 3164 3163 3161 3159 3157
3166 3166 3165 3164 3162 3161 3159 3156 3155 3157 3159 3162 3162 3164 3165 3165 3167 3170 3170 3171 3173 3176 3178 3179 3179 3179 3179 3179 3179 3180 3181 3181 3181 3180 3179 3179 3179 3178 3176 3173 3170 3168 3166 3162 3161 3160 3158 3156 3154
3162 3162 3162 3162 3159 3157 3155 3151 3151 3153 3154 3156 3156 3159 3160 3160 3161 3164 3167 3169 3169 3172 3175 3176 3177 3176 3176 3177 3177 3178 3179 3179 3179 3179 3178 3177 3177 3175 3174 3172 3169 3167 3165 3163 3160 3157 3155 3154 3152
3156 3160 3159 3157 3157 3154 3153 3145 3146 3146 3149 3148 3149 3152 3155 3156 3154 3157 3160 3163 3166 3168 3169 3171 3173 3173 3174 3175 3175 3176 3177 3177 3177 3177 3176 3175 3174 3173 3172 3170 3167 3166 3163 3162 3160 3157 3154 3152 3149
3152 3155 3152 3151 3150 3148 3150 3147 3139 3142 3141 3142 3144 3145 3148 3149 3149 3149 3154 3158 3159 3161 3163 3166 3168 3169 3170 3171 3172 3174 3175 3175 3175 3175 3174 3172 3172 3170 3169 3167 3164 3163 3161 3159 3157 3155 3153 3150 3148
3150 3149 3148 3145 3145 3139 3142 3142 3135 3137 3138 3138 3138 3139 3141 3143 3143 3144 3149 3152 3153 3155 3157 3160 3162 3164 3166 3168 3169 3170 3171 3172 3172 3172 3171 3170 3169 3167 3165 3162 3160 3159 3158 3156 3154 3153 3150 3148 3146
3145 3148 3146 3141 3139 3133 3137 3134 3130 3133 3132 3132 3133 3134 3135 3135 3136 3136 3139 3142 3146 3149 3152 3155 3157 3159 3161 3164 3166 3167 3168 3169 3168 3168 3167 3166 3165 3163 3161 3159 3158 3156 3154 3152 3150 3149 3146 3144 3142
3139 3143 3145 3138 3135 3131 3132 3125 3125 3127 3128 3128 3128 3129 3128 3127 3126 3127 3131 3134 3138 3143 3146 3148 3152 3155 3156 3159 3161 3162 3164 3165 3165 3164 3163 3162 3161 3159 3157 3157 3156 3153 3150 3147 3145 3143 3140 3138 3136
3134 3133 3138 3134 3131 3127 3123 3121 3122 3122 3125 3126 3125 3124 3122 3120 3119 3121 3125 3127 3132 3136 3140 3144 3147 3149 3151 3155 3157 3158 3159 3160 3161 3160 3159 3158 3156 3155 3154 3153 3151 3149 3146 3143 3140 3137 3134 3132 3130
3132 3134 3133 3133 3129 3123 3114 3114 3116 3117 3119 3121 3120 3119 3116 3114 3114 3116 3118 3121 3126 3130 3134 3137 3141 3143 3147 3148 3150 3153 3154 3155 3156 3155 3154 3153 3151 3150 3149 3148 3145 3143 3141 3138 3135 3132 3129 3127 3124
3129 3127 3127 3126 3124 3118 3112 3107 3113 3115 3115 3115 3114 3113 3112 3112 3112 3114 3114 3119 3122 3126 3128 3132 3135 3137 3139 3142 3145 3147 3149 3150 3150 3149 3149 3147 3146 3145 3143 3141 3138 3137 3134 3133 3130 3127 3124 3121 3120
3121 3119 3121 3119 3115 3110 3107 3094 3107 3110 3112 3112 3110 3110 3108 3108 3113 3112 3114 3115 3118 3121 3124 3127 3129 3132 3134 3136 3138 3141 3142 3143 3143 3144 3141 3140 3138 3137 3136 3134 3132 3130 3128 3125 3124 3121 3120 3116 3114